Regional Weather Roundup
Issued by NWS

Home | Current Version | Previous Version | Graphics & Text | Print | Product List | Glossary On
Versions: 1 2 3 4 5 6 7 8 9 10 11 12 13 14 15 16 17 18 19 20 21 22 23 24 25 26 27 28 29 30 31 32 33 34 35 36 37 38 39 40 41 42 43 44 45 46 47 48 49 50
000
ASUS43 KFSD 232002
RWRSD

WEATHER ROUNDUP FOR SOUTH DAKOTA
NATIONAL WEATHER SERVICE SIOUX FALLS SD
300 PM CDT WED APR 23 2014

NOTE: "FAIR" INDICATES FEW OR NO CLOUDS BELOW 12,000 FEET WITH NO
SIGNIFICANT WEATHER AND/OR OBSTRUCTIONS TO VISIBILITY.


SDZ001>005-009-010-012>017-232100-
NORTHWEST AND NORTH CENTRAL SOUTH DAKOTA

CITY           SKY/WX    TMP DP  RH WIND       PRES   REMARKS
BUFFALO          N/A     50  37  61 NW35G44   29.56R
FAITH            N/A     62  44  51 NW23G32   29.56R
MOBRIDGE       CLOUDY    56  47  71 E21G28    29.47F
$$

SDZ012>016-024>037-041>051-057-063-072>074-232100-
SOUTHWEST AND SOUTH CENTRAL SOUTH DAKOTA

CITY           SKY/WX    TMP DP  RH WIND       PRES   REMARKS
RAPID CTY ARPT PTSUNNY   61  41  47 N35G44    29.57R
PIERRE         CLOUDY    68  44  42 E10       29.49R
CUSTER         PTSUNNY   56  31  38 W16G29    29.65R
PHILIP         CLOUDY    69  46  43 W8        29.51S
PINE RIDGE     MOSUNNY   66  23  19 W24G36    29.60R
WINNER         FAIR      75  44  33 W9        29.51R
$$

SDZ004>011-016>023-039-040-232100-
NORTHEAST SOUTH DAKOTA

CITY           SKY/WX    TMP DP  RH WIND       PRES   REMARKS
ABERDEEN       LGT RAIN  55  37  50 SE23G36   29.64S
WATERTOWN      PTSUNNY   53  37  54 SE23G35   29.71S
SISSETON         N/A     43  39  86 S24G39    29.76R
$$

SDZ017-020-022-023-036>040-048>070-232100-
SOUTHEAST SOUTH DAKOTA

CITY           SKY/WX    TMP DP  RH WIND       PRES   REMARKS
SIOUX FALLS    PTSUNNY   62  41  46 S26G40    29.68F
HURON          MOSUNNY   69  40  34 SE24G38   29.58F
CHAMBERLAIN      N/A     73  44  35 S16G23    29.50F
MITCHELL       PTSUNNY   69  42  37 S29G39    29.58F
YANKTON        SUNNY     66  43  42 SE28G37   29.63F
$$

ABBREVIATIONS USED IN REMARKS
   TC - TEMPERATURE IN CELSIUS
  WCI - WIND CHILL INDEX
   HX - HEAT INDEX
  VSB - VISIBILITY




USA.gov is the U.S. government's official web portal to all federal, state and local government web resources and services.